Satellite: STS-114 Catalog Number: 28775 Epoch time: 05221.55490548 = yrday.fracday Element set: 902 Inclination: 51.6449 deg RA of node: 347.5911 deg Eccentricity: .0027241 Arg of perigee:18.2916 deg Mean anomaly: 341.9224 deg Mean motion: 15.79740015 rev/day Decay rate:1.60710E-04 rev/day^2 Epoch rev: 221 Checksum: 307